Change the Weather History Date:

Thursday, December 22, 2011

  Actual Average Record
Temperature  
Mean Temperature 24 °F -  
Max Temperature 32 °F 27 °F 40 °F (1990)
Min Temperature 14 °F 11 °F -11 °F (1989)
Degree Days  
Heating Degree Days 42    
Moisture  
Dew Point 18 °F    
Average Humidity 70    
Maximum Humidity 86    
Minimum Humidity 59    
Precipitation  
Precipitation 0.00 in - - ()
Sea Level Pressure  
Sea Level Pressure 30.04 in    
Wind  
Wind Speed 10 mph (NW)    
Max Wind Speed 24 mph    
Max Gust Speed 31 mph    
Visibility 10 miles    
Events      
Averages and records for this station are not official NWS values.
T = Trace of Precipitation, MM = Missing Value Source: NWS Daily Summary

Daily Weather History Graph

Daily Weather History Graph

Search for Another Location

Airport or City:

Trip Planner

Search our weather history database for the weather conditions in past years. The results will help you decide how hot, cold, wet, or windy it might be!

Date:

Astronomy

Dec. 22, 2011 Rise Set
Actual Time 8:18 AM EST 4:54 PM EST
Civil Twilight 7:43 AM EST 5:29 PM EST
Nautical Twilight 7:05 AM EST 6:07 PM EST
Astronomical Twilight 6:28 AM EST 6:44 PM EST
Moon 6:00 AM EST (12/22) 3:04 PM EST (12/22)
Length of Visible Light 9h 46m
Length of Day
8h 36m
Waning Crescent, 6% of the Moon is Illuminated
Dec 22
Waning Crescent
Dec 24
New
Jan 1
First Quarter
Jan 9
Full
Jan 16
Last Quarter

Hourly Weather History & Observations

Time (EST) Temp. Windchill Dew Point Humidity Pressure Visibility Wind Dir Wind Speed Gust Speed Precip Events Conditions
12:15 AM 32.0 °F 26.4 °F 24.8 °F 75% 29.81 in 10.0 mi WSW 5.8 mph - N/A   Overcast
12:35 AM 32.0 °F 26.4 °F 24.8 °F 75% 29.81 in 10.0 mi West 5.8 mph - N/A   Overcast
12:55 AM 32.0 °F 26.4 °F 24.8 °F 75% 29.82 in 10.0 mi WSW 5.8 mph - N/A   Overcast
1:15 AM 32.0 °F 25.6 °F 24.8 °F 75% 29.83 in 10.0 mi WSW 6.9 mph - N/A   Overcast
1:35 AM 32.0 °F 26.4 °F 24.8 °F 75% 29.83 in 10.0 mi West 5.8 mph - N/A   Overcast
1:55 AM 32.0 °F 24.8 °F 24.8 °F 75% 29.85 in 10.0 mi West 8.1 mph - N/A   Overcast
2:15 AM 32.0 °F 25.6 °F 24.8 °F 75% 29.86 in 10.0 mi West 6.9 mph - N/A   Overcast
2:35 AM 32.0 °F 26.4 °F 24.8 °F 75% 29.87 in 10.0 mi West 5.8 mph - N/A   Overcast
2:55 AM 32.0 °F 25.6 °F 24.8 °F 75% 29.87 in 10.0 mi West 6.9 mph - N/A   Overcast
3:15 AM 32.0 °F 24.8 °F 26.6 °F 80% 29.88 in 10.0 mi West 8.1 mph - N/A   Overcast
3:35 AM 32.0 °F 26.4 °F 26.6 °F 80% 29.89 in 10.0 mi WSW 5.8 mph - N/A   Overcast
3:55 AM 32.0 °F 26.4 °F 26.6 °F 80% 29.90 in 10.0 mi WSW 5.8 mph - N/A   Overcast
4:55 AM 32.0 °F 26.4 °F 26.6 °F 80% 29.91 in 10.0 mi West 5.8 mph - N/A   Overcast
5:15 AM 32.0 °F 24.8 °F 26.6 °F 80% 29.90 in 10.0 mi West 8.1 mph - N/A   Overcast
5:35 AM 32.0 °F 25.6 °F 26.6 °F 80% 29.91 in 10.0 mi West 6.9 mph - N/A   Overcast
5:55 AM 32.0 °F 25.6 °F 26.6 °F 80% 29.92 in 10.0 mi West 6.9 mph - N/A   Overcast
6:15 AM 32.0 °F 24.8 °F 26.6 °F 80% 29.93 in 10.0 mi West 8.1 mph - N/A   Overcast
6:35 AM 32.0 °F 24.8 °F 26.6 °F 80% 29.93 in 10.0 mi West 8.1 mph - N/A   Overcast
6:55 AM 32.0 °F 25.6 °F 26.6 °F 80% 29.94 in 10.0 mi West 6.9 mph - N/A   Overcast
7:15 AM 30.2 °F 23.4 °F 26.6 °F 86% 29.96 in 10.0 mi West 6.9 mph - N/A   Mostly Cloudy
7:35 AM 32.0 °F 23.6 °F 26.6 °F 80% 29.97 in 10.0 mi West 10.4 mph - N/A   Overcast
7:55 AM 32.0 °F 24.8 °F 26.6 °F 80% 29.98 in 10.0 mi West 8.1 mph - N/A   Overcast
8:15 AM 32.0 °F 21.6 °F 26.6 °F 80% 29.99 in 3.0 mi NW 15.0 mph 23.0 mph N/A   Mostly Cloudy
8:35 AM 32.0 °F 21.6 °F 24.8 °F 75% 30.01 in 10.0 mi WNW 15.0 mph - N/A   Overcast
8:55 AM 30.2 °F 20.2 °F 24.8 °F 80% 30.01 in 10.0 mi WNW 12.7 mph 17.3 mph N/A   Overcast
9:15 AM 30.2 °F 20.8 °F 24.8 °F 80% 30.03 in 10.0 mi WNW 11.5 mph - N/A   Overcast
9:35 AM 30.2 °F 20.2 °F 23.0 °F 75% 30.04 in 10.0 mi NW 12.7 mph 18.4 mph N/A   Overcast
10:35 AM 28.4 °F 14.7 °F 19.4 °F 69% 30.05 in 10.0 mi NNW 21.9 mph 31.1 mph N/A   Overcast
10:55 AM 28.4 °F 14.7 °F 17.6 °F 64% 30.07 in 10.0 mi NNW 21.9 mph 28.8 mph N/A   Overcast
11:15 AM 28.4 °F 15.8 °F 17.6 °F 64% 30.07 in 10.0 mi NNW 18.4 mph 27.6 mph N/A   Overcast
11:35 AM 28.4 °F 14.1 °F 17.6 °F 64% 30.09 in 10.0 mi NNW 24.2 mph - N/A   Overcast
11:55 AM 26.6 °F 12.4 °F 15.8 °F 64% 30.09 in 10.0 mi NW 21.9 mph 26.5 mph N/A   Overcast
12:15 PM 28.4 °F 14.1 °F 15.8 °F 59% 30.08 in 10.0 mi NW 24.2 mph 27.6 mph N/A   Overcast
12:35 PM 26.6 °F 11.7 °F 15.8 °F 64% 30.08 in 10.0 mi NNW 24.2 mph 28.8 mph N/A   Overcast
12:55 PM 26.6 °F 13.8 °F 15.8 °F 64% 30.09 in 10.0 mi NW 17.3 mph 25.3 mph N/A   Overcast
1:15 PM 26.6 °F 14.3 °F 15.8 °F 64% 30.08 in 10.0 mi NW 16.1 mph 20.7 mph N/A   Overcast
1:35 PM 26.6 °F 12.7 °F 14.0 °F 59% 30.09 in 10.0 mi NW 20.7 mph 27.6 mph N/A   Overcast
1:55 PM 24.8 °F 11.1 °F 14.0 °F 64% 30.10 in 10.0 mi NNW 18.4 mph 26.5 mph N/A   Overcast
2:15 PM 24.8 °F 11.5 °F 12.2 °F 59% 30.11 in 10.0 mi NNW 17.3 mph - N/A   Overcast
2:35 PM 24.8 °F 11.1 °F 12.2 °F 59% 30.13 in 10.0 mi NNW 18.4 mph 26.5 mph N/A   Overcast
2:55 PM 23.0 °F 9.2 °F 12.2 °F 63% 30.13 in 10.0 mi NNW 17.3 mph 24.2 mph N/A   Overcast
3:15 PM 23.0 °F 8.0 °F 12.2 °F 63% 30.13 in 10.0 mi NNW 20.7 mph 25.3 mph N/A   Overcast
4:15 PM 21.2 °F 4.5 °F 10.4 °F 63% 30.12 in 10.0 mi NNW 24.2 mph 28.8 mph N/A   Overcast
4:35 PM 21.2 °F 6.4 °F 10.4 °F 63% 30.13 in 10.0 mi NW 18.4 mph - N/A   Overcast
4:55 PM 21.2 °F 6.0 °F 10.4 °F 63% 30.13 in 10.0 mi NNW 19.6 mph 26.5 mph N/A   Overcast
5:15 PM 21.2 °F 8.9 °F 10.4 °F 63% 30.14 in 10.0 mi NNW 12.7 mph 19.6 mph N/A   Overcast
5:35 PM 21.2 °F 7.3 °F 12.2 °F 68% 30.15 in 10.0 mi NNW 16.1 mph 20.7 mph N/A   Overcast
5:55 PM 21.2 °F 9.5 °F 10.4 °F 63% 30.16 in 10.0 mi North 11.5 mph 23.0 mph N/A   Overcast
6:15 PM 21.2 °F 6.4 °F 10.4 °F 63% 30.17 in 10.0 mi NNW 18.4 mph 24.2 mph N/A   Overcast
6:35 PM 21.2 °F 8.3 °F 10.4 °F 63% 30.18 in 10.0 mi NNW 13.8 mph 21.9 mph N/A   Overcast
6:55 PM 21.2 °F 9.5 °F 10.4 °F 63% 30.18 in 8.0 mi North 11.5 mph - N/A   Overcast
7:35 PM 19.4 °F 7.2 °F 10.4 °F 68% 30.20 in 10.0 mi North 11.5 mph - N/A   Overcast
7:55 PM 19.4 °F 7.9 °F 8.6 °F 63% 30.20 in 10.0 mi NNE 10.4 mph - N/A   Overcast
8:15 PM 19.4 °F 8.6 °F 8.6 °F 63% 30.20 in 10.0 mi North 9.2 mph - N/A   Overcast
8:35 PM 17.6 °F 5.7 °F 8.6 °F 68% 30.20 in 10.0 mi NNE 10.4 mph - N/A   Overcast
8:55 PM 17.6 °F 8.2 °F 6.8 °F 63% 30.20 in 10.0 mi NNE 6.9 mph - N/A   Overcast
9:55 PM 15.8 °F 2.7 °F 6.8 °F 68% 30.20 in 10.0 mi NE 11.5 mph - N/A   Overcast
10:15 PM 15.8 °F 4.2 °F 6.8 °F 68% 30.20 in 8.0 mi NNE 9.2 mph - N/A   Overcast
10:35 PM 15.8 °F 6.1 °F 6.8 °F 68% 30.19 in 10.0 mi NNE 6.9 mph - N/A   Overcast
10:55 PM 15.8 °F 6.1 °F 6.8 °F 68% 30.20 in 10.0 mi NNE 6.9 mph - N/A   Overcast
11:15 PM 15.8 °F 6.1 °F 5.0 °F 62% 30.19 in 10.0 mi NNE 6.9 mph - N/A   Overcast
11:35 PM 14.0 °F 8.2 °F 6.8 °F 73% 30.20 in 10.0 mi North 3.5 mph - N/A   Overcast